User: anonymous   Login
Location: Vancouver
(49.2500°N, 123.1330°W)
Time: 09:47:46
(UTC-08:00)
Language:

Cosmos 676 Rocket - Orbit

View from above orbital plane
View from above orbital plane
View from above satellite
View from above satellite

Ground track
Ground track

The orbit data is extracted from the following two-line orbital elements,

1 07434U 74071B   16040.49694740  .00000184  00000-0  71465-4 0  9991
2 07434  74.0465  40.6041 0019450  72.0350 288.2921 14.36539423165810
Epoch (UTC): 09 February 2016 11:55:36
Eccentricity: 0.0019450
inclination: 74.0465°
perigee height: 756 km
apogee height: 784 km
right ascension of ascending node: 40.6041°
argument of perigee: 72.0350°
revolutions per day: 14.36539423
mean anomaly at epoch: 288.2921°
orbit number at epoch: 16581

The dashed part of the orbit path shows where the satellite is in the earth's shadow,  

DLR